owner,sensor,date,latitude,longitude,vertical_datum,wind_speed,wind_to_direction,wind_speed_of_gust,qcFlag 
LOOP,urn:ioos:station:wmo:lopl1:1,2019-04-01T00:01:00Z,28.8850,-90.0250,10.0,12.4,30.0,14.9,'1111122,1111122,1111122' 
LOOP,urn:ioos:station:wmo:lopl1:1,2019-04-01T01:06:00Z,28.8850,-90.0250,10.0,10.8,40.0,13.4,'1111122,1111122,1111122' 
LOOP,urn:ioos:station:wmo:lopl1:1,2019-04-01T02:06:00Z,28.8850,-90.0250,10.0,8.2,20.0,9.8,'1111122,1111122,1111122' 
LOOP,urn:ioos:station:wmo:lopl1:1,2019-04-01T03:06:00Z,28.8850,-90.0250,10.0,9.3,20.0,11.8,'1111122,1111122,1111122' 
LOOP,urn:ioos:station:wmo:lopl1:1,2019-04-01T04:06:00Z,28.8850,-90.0250,10.0,9.8,20.0,12.9,'1111122,1111122,1111122' 
LOOP,urn:ioos:station:wmo:lopl1:1,2019-04-01T05:06:00Z,28.8850,-90.0250,10.0,11.3,40.0,13.4,'1111122,1111122,1111122' 
LOOP,urn:ioos:station:wmo:lopl1:1,2019-04-01T06:06:00Z,28.8850,-90.0250,10.0,11.3,30.0,14.4,'1111122,1111122,1111122' 
LOOP,urn:ioos:station:wmo:lopl1:1,2019-04-01T07:06:00Z,28.8850,-90.0250,10.0,10.3,40.0,12.9,'1111122,1111122,1111122' 
LOOP,urn:ioos:station:wmo:lopl1:1,2019-04-01T08:06:00Z,28.8850,-90.0250,10.0,9.3,60.0,11.8,'1111122,1111122,1111122' 
LOOP,urn:ioos:station:wmo:lopl1:1,2019-04-01T09:06:00Z,28.8850,-90.0250,10.0,8.2,60.0,11.3,'1111122,1111122,1111122' 
LOOP,urn:ioos:station:wmo:lopl1:1,2019-04-01T10:06:00Z,28.8850,-90.0250,10.0,8.8,40.0,10.8,'1111122,1111122,1111122' 
LOOP,urn:ioos:station:wmo:lopl1:1,2019-04-01T11:06:00Z,28.8850,-90.0250,10.0,8.2,40.0,11.3,'1111122,1111122,1111122' 
LOOP,urn:ioos:station:wmo:lopl1:1,2019-04-01T12:11:00Z,28.8850,-90.0250,10.0,8.2,50.0,10.3,'1111122,1111122,1111122' 
LOOP,urn:ioos:station:wmo:lopl1:1,2019-04-01T13:11:00Z,28.8850,-90.0250,10.0,8.8,30.0,10.3,'1111122,1111122,1111122' 
LOOP,urn:ioos:station:wmo:lopl1:1,2019-04-01T14:11:00Z,28.8850,-90.0250,10.0,6.2,70.0,8.2,'1111122,1111122,1111122' 
LOOP,urn:ioos:station:wmo:lopl1:1,2019-04-01T15:11:00Z,28.8850,-90.0250,10.0,5.7,40.0,7.2,'1111122,1111122,1111122' 
LOOP,urn:ioos:station:wmo:lopl1:1,2019-04-01T16:11:00Z,28.8850,-90.0250,10.0,4.1,70.0,6.2,'1111122,1111122,1111122' 
LOOP,urn:ioos:station:wmo:lopl1:1,2019-04-01T17:11:00Z,28.8850,-90.0250,10.0,5.7,20.0,7.2,'1111122,1111122,1111122' 
LOOP,urn:ioos:station:wmo:lopl1:1,2019-04-01T18:11:00Z,28.8850,-90.0250,10.0,6.2,30.0,7.2,'1111122,1111122,1111122' 
LOOP,urn:ioos:station:wmo:lopl1:1,2019-04-01T19:11:00Z,28.8850,-90.0250,10.0,5.7,20.0,7.2,'1111122,1111122,1111122' 
LOOP,urn:ioos:station:wmo:lopl1:1,2019-04-01T20:11:00Z,28.8850,-90.0250,10.0,7.2,40.0,9.3,'1111122,1111122,1111122' 
LOOP,urn:ioos:station:wmo:lopl1:1,2019-04-01T21:11:00Z,28.8850,-90.0250,10.0,6.2,40.0,7.7,'1111122,1111122,1111122' 
LOOP,urn:ioos:station:wmo:lopl1:1,2019-04-01T22:11:00Z,28.8850,-90.0250,10.0,7.2,40.0,9.3,'1111122,1111122,1111122' 
LOOP,urn:ioos:station:wmo:lopl1:1,2019-04-01T23:11:00Z,28.8850,-90.0250,10.0,6.7,60.0,9.3,'1111122,1111122,1111122' 
LOOP,urn:ioos:station:wmo:lopl1:1,2019-04-02T00:16:00Z,28.8850,-90.0250,10.0,5.7,30.0,6.7,'1111122,1111122,1111122' 
LOOP,urn:ioos:station:wmo:lopl1:1,2019-04-02T01:16:00Z,28.8850,-90.0250,10.0,2.6,350.0,4.1,'1111122,1111122,1111122' 
LOOP,urn:ioos:station:wmo:lopl1:1,2019-04-02T02:16:00Z,28.8850,-90.0250,10.0,3.1,10.0,5.7,'1111122,1111122,1111122' 
LOOP,urn:ioos:station:wmo:lopl1:1,2019-04-02T03:16:00Z,28.8850,-90.0250,10.0,3.1,10.0,5.7,'1111122,1111122,1111122' 
LOOP,urn:ioos:station:wmo:lopl1:1,2019-04-02T04:16:00Z,28.8850,-90.0250,10.0,3.1,20.0,4.6,'1111122,1111122,1111122' 
LOOP,urn:ioos:station:wmo:lopl1:1,2019-04-02T05:16:00Z,28.8850,-90.0250,10.0,5.1,20.0,7.2,'1111122,1111122,1111122' 
LOOP,urn:ioos:station:wmo:lopl1:1,2019-04-02T06:16:00Z,28.8850,-90.0250,10.0,5.1,40.0,6.2,'1111122,1111122,1111122' 
LOOP,urn:ioos:station:wmo:lopl1:1,2019-04-02T07:16:00Z,28.8850,-90.0250,10.0,3.1,360.0,5.7,'1111122,1111122,1111122' 
LOOP,urn:ioos:station:wmo:lopl1:1,2019-04-02T08:16:00Z,28.8850,-90.0250,10.0,5.1,340.0,8.8,'1111122,1111122,1111122' 
LOOP,urn:ioos:station:wmo:lopl1:1,2019-04-02T09:16:00Z,28.8850,-90.0250,10.0,5.7,10.0,8.8,'1111122,1111122,1111122' 
LOOP,urn:ioos:station:wmo:lopl1:1,2019-04-02T10:16:00Z,28.8850,-90.0250,10.0,5.7,360.0,8.2,'1111122,1111122,1111122' 
LOOP,urn:ioos:station:wmo:lopl1:1,2019-04-02T11:21:00Z,28.8850,-90.0250,10.0,7.7,10.0,10.3,'1111122,1111122,1111122' 
LOOP,urn:ioos:station:wmo:lopl1:1,2019-04-02T12:21:00Z,28.8850,-90.0250,10.0,8.8,20.0,10.8,'1111122,1111122,1111122' 
LOOP,urn:ioos:station:wmo:lopl1:1,2019-04-02T13:21:00Z,28.8850,-90.0250,10.0,8.2,20.0,9.8,'1111122,1111122,1111122' 
LOOP,urn:ioos:station:wmo:lopl1:1,2019-04-02T14:21:00Z,28.8850,-90.0250,10.0,7.2,10.0,8.8,'1111122,1111122,1111122' 
LOOP,urn:ioos:station:wmo:lopl1:1,2019-04-02T15:21:00Z,28.8850,-90.0250,10.0,7.2,20.0,9.3,'1111122,1111122,1111122' 
LOOP,urn:ioos:station:wmo:lopl1:1,2019-04-02T16:21:00Z,28.8850,-90.0250,10.0,6.7,20.0,8.2,'1111122,1111122,1111122' 
LOOP,urn:ioos:station:wmo:lopl1:1,2019-04-02T17:21:00Z,28.8850,-90.0250,10.0,6.2,10.0,7.2,'1111122,1111122,1111122' 
LOOP,urn:ioos:station:wmo:lopl1:1,2019-04-02T18:26:00Z,28.8850,-90.0250,10.0,5.7,20.0,7.2,'1111122,1111122,1111122' 
LOOP,urn:ioos:station:wmo:lopl1:1,2019-04-02T19:26:00Z,28.8850,-90.0250,10.0,4.1,20.0,5.1,'1111122,1111122,1111122' 
LOOP,urn:ioos:station:wmo:lopl1:1,2019-04-02T20:26:00Z,28.8850,-90.0250,10.0,3.6,40.0,4.6,'1111122,1111122,1111122' 
LOOP,urn:ioos:station:wmo:lopl1:1,2019-04-02T21:26:00Z,28.8850,-90.0250,10.0,2.1,30.0,3.1,'1111122,1111122,1111122' 
LOOP,urn:ioos:station:wmo:lopl1:1,2019-04-02T22:26:00Z,28.8850,-90.0250,10.0,2.1,60.0,2.6,'1111122,1111122,1111122' 
LOOP,urn:ioos:station:wmo:lopl1:1,2019-04-02T23:26:00Z,28.8850,-90.0250,10.0,3.1,130.0,3.6,'1111122,1111122,1111122' 
LOOP,urn:ioos:station:wmo:lopl1:1,2019-04-03T00:26:00Z,28.8850,-90.0250,10.0,3.1,120.0,4.1,'1111122,1111122,1111122' 
LOOP,urn:ioos:station:wmo:lopl1:1,2019-04-03T01:26:00Z,28.8850,-90.0250,10.0,3.1,160.0,4.1,'1111122,1111122,1111122' 
LOOP,urn:ioos:station:wmo:lopl1:1,2019-04-03T02:26:00Z,28.8850,-90.0250,10.0,2.6,140.0,3.6,'1111122,1111122,1111122' 
LOOP,urn:ioos:station:wmo:lopl1:1,2019-04-03T03:26:00Z,28.8850,-90.0250,10.0,2.6,170.0,3.1,'1111122,1111122,1111122' 
LOOP,urn:ioos:station:wmo:lopl1:1,2019-04-03T04:26:00Z,28.8850,-90.0250,10.0,1.0,170.0,1.5,'1111122,1111122,1111122' 
LOOP,urn:ioos:station:wmo:lopl1:1,2019-04-03T05:26:00Z,28.8850,-90.0250,10.0,2.1,160.0,2.6,'1111122,1111122,1111122' 
LOOP,urn:ioos:station:wmo:lopl1:1,2019-04-03T06:26:00Z,28.8850,-90.0250,10.0,3.1,150.0,4.1,'1111122,1111122,1111122' 
LOOP,urn:ioos:station:wmo:lopl1:1,2019-04-03T07:31:00Z,28.8850,-90.0250,10.0,3.1,140.0,3.6,'1111122,1111122,1111122' 
LOOP,urn:ioos:station:wmo:lopl1:1,2019-04-03T08:31:00Z,28.8850,-90.0250,10.0,2.6,120.0,3.1,'1111122,1111122,1111122' 
LOOP,urn:ioos:station:wmo:lopl1:1,2019-04-03T09:31:00Z,28.8850,-90.0250,10.0,3.6,80.0,4.1,'1111122,1111122,1111122' 
LOOP,urn:ioos:station:wmo:lopl1:1,2019-04-03T10:31:00Z,28.8850,-90.0250,10.0,4.6,40.0,5.7,'1111122,1111122,1111122' 
LOOP,urn:ioos:station:wmo:lopl1:1,2019-04-03T11:31:00Z,28.8850,-90.0250,10.0,5.1,60.0,6.7,'1111122,1111122,1111122' 
LOOP,urn:ioos:station:wmo:lopl1:1,2019-04-03T12:31:00Z,28.8850,-90.0250,10.0,5.7,50.0,7.2,'1111122,1111122,1111122' 
LOOP,urn:ioos:station:wmo:lopl1:1,2019-04-03T13:31:00Z,28.8850,-90.0250,10.0,6.7,50.0,8.2,'1111122,1111122,1111122' 
LOOP,urn:ioos:station:wmo:lopl1:1,2019-04-03T14:31:00Z,28.8850,-90.0250,10.0,6.7,70.0,8.2,'1111122,1111122,1111122' 
LOOP,urn:ioos:station:wmo:lopl1:1,2019-04-03T15:31:00Z,28.8850,-90.0250,10.0,6.7,70.0,8.2,'1111122,1111122,1111122' 
LOOP,urn:ioos:station:wmo:lopl1:1,2019-04-03T16:31:00Z,28.8850,-90.0250,10.0,6.7,70.0,7.7,'1111122,1111122,1111122' 
LOOP,urn:ioos:station:wmo:lopl1:1,2019-04-03T17:31:00Z,28.8850,-90.0250,10.0,8.2,80.0,9.3,'1111122,1111122,1111122' 
LOOP,urn:ioos:station:wmo:lopl1:1,2019-04-03T18:31:00Z,28.8850,-90.0250,10.0,8.8,80.0,9.8,'1111122,1111122,1111122' 
LOOP,urn:ioos:station:wmo:lopl1:1,2019-04-03T19:32:00Z,28.8850,-90.0250,10.0,9.8,80.0,10.8,'1111122,1111122,1111122' 
LOOP,urn:ioos:station:wmo:lopl1:1,2019-04-03T20:32:00Z,28.8850,-90.0250,10.0,8.8,90.0,9.3,'1111122,1111122,1111122' 
LOOP,urn:ioos:station:wmo:lopl1:1,2019-04-03T21:37:00Z,28.8850,-90.0250,10.0,9.3,90.0,10.3,'1111122,1111122,1111122' 
LOOP,urn:ioos:station:wmo:lopl1:1,2019-04-03T22:37:00Z,28.8850,-90.0250,10.0,7.7,100.0,8.2,'1111122,1111122,1111122' 
LOOP,urn:ioos:station:wmo:lopl1:1,2019-04-03T23:37:00Z,28.8850,-90.0250,10.0,6.7,100.0,7.7,'1111122,1111122,1111122' 
LOOP,urn:ioos:station:wmo:lopl1:1,2019-04-04T00:37:00Z,28.8850,-90.0250,10.0,6.2,100.0,6.7,'1111122,1111122,1111122' 
LOOP,urn:ioos:station:wmo:lopl1:1,2019-04-04T01:37:00Z,28.8850,-90.0250,10.0,7.7,120.0,8.2,'1111122,1111122,1111122' 
LOOP,urn:ioos:station:wmo:lopl1:1,2019-04-04T02:37:00Z,28.8850,-90.0250,10.0,11.3,140.0,12.4,'1111122,1111122,1111122' 
LOOP,urn:ioos:station:wmo:lopl1:1,2019-04-04T03:37:00Z,28.8850,-90.0250,10.0,9.3,140.0,10.8,'1111122,1111122,1111122' 
LOOP,urn:ioos:station:wmo:lopl1:1,2019-04-04T04:37:00Z,28.8850,-90.0250,10.0,8.8,140.0,9.8,'1111122,1111122,1111122' 
LOOP,urn:ioos:station:wmo:lopl1:1,2019-04-04T05:37:00Z,28.8850,-90.0250,10.0,9.8,140.0,10.8,'1111122,1111122,1111122' 
LOOP,urn:ioos:station:wmo:lopl1:1,2019-04-04T06:37:00Z,28.8850,-90.0250,10.0,9.8,140.0,10.8,'1111122,1111122,1111122' 
LOOP,urn:ioos:station:wmo:lopl1:1,2019-04-04T07:37:00Z,28.8850,-90.0250,10.0,9.8,130.0,9.8,'1111122,1111122,1111122' 
LOOP,urn:ioos:station:wmo:lopl1:1,2019-04-04T08:37:00Z,28.8850,-90.0250,10.0,9.3,140.0,9.8,'1111122,1111122,1111122' 
LOOP,urn:ioos:station:wmo:lopl1:1,2019-04-04T09:42:00Z,28.8850,-90.0250,10.0,8.8,140.0,9.8,'1111122,1111122,1111122' 
LOOP,urn:ioos:station:wmo:lopl1:1,2019-04-04T10:42:00Z,28.8850,-90.0250,10.0,9.3,110.0,9.8,'1111122,1111122,1111122' 
LOOP,urn:ioos:station:wmo:lopl1:1,2019-04-04T11:42:00Z,28.8850,-90.0250,10.0,9.8,130.0,10.8,'1111122,1111122,1111122' 
LOOP,urn:ioos:station:wmo:lopl1:1,2019-04-04T12:42:00Z,28.8850,-90.0250,10.0,12.4,140.0,14.4,'1111122,1111122,1111122' 
LOOP,urn:ioos:station:wmo:lopl1:1,2019-04-04T13:42:00Z,28.8850,-90.0250,10.0,12.4,140.0,13.9,'1111122,1111122,1111122' 
LOOP,urn:ioos:station:wmo:lopl1:1,2019-04-04T14:42:00Z,28.8850,-90.0250,10.0,11.3,160.0,12.4,'1111122,1111122,1111122' 
LOOP,urn:ioos:station:wmo:lopl1:1,2019-04-04T15:42:00Z,28.8850,-90.0250,10.0,11.3,160.0,12.4,'1111122,1111122,1111122' 
LOOP,urn:ioos:station:wmo:lopl1:1,2019-04-04T16:42:00Z,28.8850,-90.0250,10.0,9.8,160.0,10.8,'1111122,1111122,1111122' 
LOOP,urn:ioos:station:wmo:lopl1:1,2019-04-04T17:42:00Z,28.8850,-90.0250,10.0,8.2,150.0,8.8,'1111122,1111122,1111122' 
LOOP,urn:ioos:station:wmo:lopl1:1,2019-04-04T18:42:00Z,28.8850,-90.0250,10.0,6.2,120.0,7.2,'1111122,1111122,1111122' 
LOOP,urn:ioos:station:wmo:lopl1:1,2019-04-04T19:42:00Z,28.8850,-90.0250,10.0,12.9,20.0,19.0,'1111122,1111122,1111122' 
LOOP,urn:ioos:station:wmo:lopl1:1,2019-04-04T20:42:00Z,28.8850,-90.0250,10.0,13.4,50.0,17.5,'1111122,1111122,1111122' 
LOOP,urn:ioos:station:wmo:lopl1:1,2019-04-04T21:42:00Z,28.8850,-90.0250,10.0,12.9,70.0,15.4,'1111122,1111122,1111122' 
LOOP,urn:ioos:station:wmo:lopl1:1,2019-04-04T22:47:00Z,28.8850,-90.0250,10.0,14.4,90.0,16.0,'1111122,1111122,1111122' 
LOOP,urn:ioos:station:wmo:lopl1:1,2019-04-04T23:47:00Z,28.8850,-90.0250,10.0,14.4,120.0,16.5,'1111122,1111122,1111122' 
LOOP,urn:ioos:station:wmo:lopl1:1,2019-04-05T00:47:00Z,28.8850,-90.0250,10.0,9.3,140.0,10.3,'1111122,1111122,1111122' 
LOOP,urn:ioos:station:wmo:lopl1:1,2019-04-05T01:47:00Z,28.8850,-90.0250,10.0,2.6,120.0,4.1,'1111122,1111122,1111122' 
LOOP,urn:ioos:station:wmo:lopl1:1,2019-04-05T02:47:00Z,28.8850,-90.0250,10.0,5.7,-9999.0,9.8,'1111122,1111122,1111122' 
LOOP,urn:ioos:station:wmo:lopl1:1,2019-04-05T03:47:00Z,28.8850,-90.0250,10.0,9.3,170.0,9.8,'1111122,1111122,1111122' 
LOOP,urn:ioos:station:wmo:lopl1:1,2019-04-05T04:47:00Z,28.8850,-90.0250,10.0,8.2,160.0,8.8,'1111122,1111122,1111122' 
LOOP,urn:ioos:station:wmo:lopl1:1,2019-04-05T05:47:00Z,28.8850,-90.0250,10.0,8.2,160.0,8.8,'1111122,1111122,1111122' 
LOOP,urn:ioos:station:wmo:lopl1:1,2019-04-05T06:47:00Z,28.8850,-90.0250,10.0,9.8,160.0,10.3,'1111122,1111122,1111122' 
LOOP,urn:ioos:station:wmo:lopl1:1,2019-04-05T07:47:00Z,28.8850,-90.0250,10.0,9.8,160.0,10.3,'1111122,1111122,1111122' 
LOOP,urn:ioos:station:wmo:lopl1:1,2019-04-05T08:47:00Z,28.8850,-90.0250,10.0,9.8,160.0,10.3,'1111122,1111122,1111122' 
LOOP,urn:ioos:station:wmo:lopl1:1,2019-04-05T09:52:00Z,28.8850,-90.0250,10.0,7.2,160.0,7.7,'1111122,1111122,1111122' 
LOOP,urn:ioos:station:wmo:lopl1:1,2019-04-05T10:52:00Z,28.8850,-90.0250,10.0,6.2,-9999.0,8.8,'1111122,1111122,1111122' 
LOOP,urn:ioos:station:wmo:lopl1:1,2019-04-05T11:52:00Z,28.8850,-90.0250,10.0,10.3,-9999.0,12.9,'1111122,1111122,1111122' 
LOOP,urn:ioos:station:wmo:lopl1:1,2019-04-05T12:52:00Z,28.8850,-90.0250,10.0,7.2,-9999.0,9.3,'1111122,1111122,1111122' 
LOOP,urn:ioos:station:wmo:lopl1:1,2019-04-05T13:52:00Z,28.8850,-90.0250,10.0,5.7,-9999.0,8.2,'1111122,1111122,1111122' 
LOOP,urn:ioos:station:wmo:lopl1:1,2019-04-05T14:52:00Z,28.8850,-90.0250,10.0,6.2,-9999.0,7.2,'1111122,1111122,1111122' 
LOOP,urn:ioos:station:wmo:lopl1:1,2019-04-05T15:52:00Z,28.8850,-90.0250,10.0,4.1,-9999.0,6.2,'1111122,1111122,1111122' 
LOOP,urn:ioos:station:wmo:lopl1:1,2019-04-05T16:52:00Z,28.8850,-90.0250,10.0,7.2,-9999.0,8.2,'1111122,1111122,1111122' 
LOOP,urn:ioos:station:wmo:lopl1:1,2019-04-05T17:52:00Z,28.8850,-90.0250,10.0,4.1,-9999.0,5.7,'1111122,1111122,1111122' 
LOOP,urn:ioos:station:wmo:lopl1:1,2019-04-05T18:52:00Z,28.8850,-90.0250,10.0,7.7,-9999.0,9.3,'1111122,1111122,1111122' 
LOOP,urn:ioos:station:wmo:lopl1:1,2019-04-05T19:52:00Z,28.8850,-90.0250,10.0,4.1,-9999.0,5.7,'1111122,1111122,1111122' 
LOOP,urn:ioos:station:wmo:lopl1:1,2019-04-05T20:52:00Z,28.8850,-90.0250,10.0,0.5,-9999.0,1.5,'1111122,1111122,1111122' 
LOOP,urn:ioos:station:wmo:lopl1:1,2019-04-05T21:52:00Z,28.8850,-90.0250,10.0,1.5,-9999.0,2.6,'1111122,1111122,1111122' 
LOOP,urn:ioos:station:wmo:lopl1:1,2019-04-05T22:52:00Z,28.8850,-90.0250,10.0,0.0,-9999.0,1.0,'1114422,1111122,1111122' 
LOOP,urn:ioos:station:wmo:lopl1:1,2019-04-06T00:02:00Z,28.8850,-90.0250,10.0,0.5,170.0,1.0,'1111122,1111122,1111122' 
LOOP,urn:ioos:station:wmo:lopl1:1,2019-04-06T01:02:00Z,28.8850,-90.0250,10.0,1.0,160.0,1.4,'11111222,11111222,11111222' 
LOOP,urn:ioos:station:wmo:lopl1:1,2019-04-06T02:02:00Z,28.8850,-90.0250,10.0,2.6,160.0,3.1,'1111122,1111122,1111122' 
LOOP,urn:ioos:station:wmo:lopl1:1,2019-04-06T03:02:00Z,28.8850,-90.0250,10.0,6.2,130.0,6.2,'1111122,1111122,1111122' 
LOOP,urn:ioos:station:wmo:lopl1:1,2019-04-06T04:02:00Z,28.8850,-90.0250,10.0,6.2,160.0,6.7,'1111122,1111122,1111122' 
LOOP,urn:ioos:station:wmo:lopl1:1,2019-04-06T05:02:00Z,28.8850,-90.0250,10.0,7.2,170.0,7.2,'1111122,1111122,1111122' 
LOOP,urn:ioos:station:wmo:lopl1:1,2019-04-06T06:02:00Z,28.8850,-90.0250,10.0,7.7,160.0,8.2,'1111122,1111122,1111122' 
LOOP,urn:ioos:station:wmo:lopl1:1,2019-04-06T07:02:00Z,28.8850,-90.0250,10.0,7.2,160.0,7.2,'1111122,1111122,1111122' 
LOOP,urn:ioos:station:wmo:lopl1:1,2019-04-06T08:02:00Z,28.8850,-90.0250,10.0,6.2,160.0,6.7,'1111122,1111122,1111122' 
LOOP,urn:ioos:station:wmo:lopl1:1,2019-04-06T09:02:00Z,28.8850,-90.0250,10.0,4.6,170.0,5.7,'1111122,1111122,1111122' 
LOOP,urn:ioos:station:wmo:lopl1:1,2019-04-06T10:02:00Z,28.8850,-90.0250,10.0,5.1,170.0,5.7,'1111122,1111122,1111122' 
LOOP,urn:ioos:station:wmo:lopl1:1,2019-04-06T11:02:00Z,28.8850,-90.0250,10.0,4.6,160.0,5.7,'1111122,1111122,1111122' 
LOOP,urn:ioos:station:wmo:lopl1:1,2019-04-06T12:02:00Z,28.8850,-90.0250,10.0,5.1,170.0,5.7,'1111122,1111122,1111122' 
LOOP,urn:ioos:station:wmo:lopl1:1,2019-04-06T13:02:00Z,28.8850,-90.0250,10.0,2.6,110.0,3.1,'1111122,1111122,1111122' 
LOOP,urn:ioos:station:wmo:lopl1:1,2019-04-06T14:02:00Z,28.8850,-90.0250,10.0,4.6,80.0,5.7,'1111122,1111122,1111122' 
LOOP,urn:ioos:station:wmo:lopl1:1,2019-04-06T15:02:00Z,28.8850,-90.0250,10.0,5.1,140.0,6.2,'1111122,1111122,1111122' 
LOOP,urn:ioos:station:wmo:lopl1:1,2019-04-06T16:02:00Z,28.8850,-90.0250,10.0,5.7,150.0,6.2,'1111122,1111122,1111122' 
LOOP,urn:ioos:station:wmo:lopl1:1,2019-04-06T17:02:00Z,28.8850,-90.0250,10.0,6.2,140.0,6.7,'1111122,1111122,1111122' 
LOOP,urn:ioos:station:wmo:lopl1:1,2019-04-06T18:02:00Z,28.8850,-90.0250,10.0,8.2,140.0,8.8,'1111122,1111122,1111122' 
LOOP,urn:ioos:station:wmo:lopl1:1,2019-04-06T19:02:00Z,28.8850,-90.0250,10.0,9.3,150.0,9.8,'1111122,1111122,1111122' 
LOOP,urn:ioos:station:wmo:lopl1:1,2019-04-06T20:02:00Z,28.8850,-90.0250,10.0,7.2,150.0,7.7,'1111122,1111122,1111122' 
LOOP,urn:ioos:station:wmo:lopl1:1,2019-04-06T21:02:00Z,28.8850,-90.0250,10.0,8.2,150.0,8.2,'1111122,1111122,1111122' 
LOOP,urn:ioos:station:wmo:lopl1:1,2019-04-06T22:07:00Z,28.8850,-90.0250,10.0,6.7,140.0,7.2,'1111122,1111122,1111122' 
LOOP,urn:ioos:station:wmo:lopl1:1,2019-04-06T23:07:00Z,28.8850,-90.0250,10.0,8.8,150.0,9.3,'1111122,1111122,1111122' 
LOOP,urn:ioos:station:wmo:lopl1:1,2019-04-07T00:07:00Z,28.8850,-90.0250,10.0,8.2,160.0,8.8,'1111122,1111122,1111122' 
LOOP,urn:ioos:station:wmo:lopl1:1,2019-04-07T01:07:00Z,28.8850,-90.0250,10.0,8.8,160.0,9.3,'1111122,1111122,1111122' 
LOOP,urn:ioos:station:wmo:lopl1:1,2019-04-07T02:07:00Z,28.8850,-90.0250,10.0,9.8,160.0,9.8,'1111122,1111122,1111122' 
LOOP,urn:ioos:station:wmo:lopl1:1,2019-04-07T03:07:00Z,28.8850,-90.0250,10.0,9.3,160.0,9.8,'1111122,1111122,1111122' 
LOOP,urn:ioos:station:wmo:lopl1:1,2019-04-07T04:07:00Z,28.8850,-90.0250,10.0,10.8,160.0,10.8,'1111122,1111122,1111122' 
LOOP,urn:ioos:station:wmo:lopl1:1,2019-04-07T05:07:00Z,28.8850,-90.0250,10.0,9.3,150.0,9.3,'1111122,1111122,1111122' 
LOOP,urn:ioos:station:wmo:lopl1:1,2019-04-07T06:07:00Z,28.8850,-90.0250,10.0,7.7,150.0,7.7,'1111122,1111122,1111122' 
LOOP,urn:ioos:station:wmo:lopl1:1,2019-04-07T07:07:00Z,28.8850,-90.0250,10.0,8.8,140.0,9.3,'1111122,1111122,1111122' 
LOOP,urn:ioos:station:wmo:lopl1:1,2019-04-07T08:07:00Z,28.8850,-90.0250,10.0,7.7,140.0,8.2,'1111122,1111122,1111122' 
LOOP,urn:ioos:station:wmo:lopl1:1,2019-04-07T09:07:00Z,28.8850,-90.0250,10.0,7.7,140.0,8.2,'1111122,1111122,1111122' 
LOOP,urn:ioos:station:wmo:lopl1:1,2019-04-07T10:12:00Z,28.8850,-90.0250,10.0,7.2,140.0,7.2,'1111122,1111122,1111122' 
LOOP,urn:ioos:station:wmo:lopl1:1,2019-04-07T11:12:00Z,28.8850,-90.0250,10.0,5.7,130.0,6.2,'1111122,1111122,1111122' 
LOOP,urn:ioos:station:wmo:lopl1:1,2019-04-07T12:12:00Z,28.8850,-90.0250,10.0,7.7,130.0,8.8,'1111122,1111122,1111122' 
LOOP,urn:ioos:station:wmo:lopl1:1,2019-04-07T13:12:00Z,28.8850,-90.0250,10.0,8.2,130.0,8.2,'1111122,1111122,1111122' 
LOOP,urn:ioos:station:wmo:lopl1:1,2019-04-07T14:12:00Z,28.8850,-90.0250,10.0,9.3,130.0,9.8,'1111122,1111122,1111122' 
LOOP,urn:ioos:station:wmo:lopl1:1,2019-04-07T15:12:00Z,28.8850,-90.0250,10.0,9.3,130.0,9.8,'1111122,1111122,1111122' 
LOOP,urn:ioos:station:wmo:lopl1:1,2019-04-07T16:12:00Z,28.8850,-90.0250,10.0,9.8,150.0,9.8,'1111122,1111122,1111122' 
LOOP,urn:ioos:station:wmo:lopl1:1,2019-04-07T17:12:00Z,28.8850,-90.0250,10.0,10.3,150.0,10.8,'1111122,1111122,1111122' 
LOOP,urn:ioos:station:wmo:lopl1:1,2019-04-07T18:12:00Z,28.8850,-90.0250,10.0,7.7,140.0,7.7,'1111122,1111122,1111122' 
LOOP,urn:ioos:station:wmo:lopl1:1,2019-04-07T19:17:00Z,28.8850,-90.0250,10.0,8.2,140.0,8.2,'1111122,1111122,1111122' 
LOOP,urn:ioos:station:wmo:lopl1:1,2019-04-07T20:17:00Z,28.8850,-90.0250,10.0,8.8,140.0,9.3,'1111122,1111122,1111122' 
LOOP,urn:ioos:station:wmo:lopl1:1,2019-04-07T21:17:00Z,28.8850,-90.0250,10.0,9.3,140.0,9.8,'1111122,1111122,1111122' 
LOOP,urn:ioos:station:wmo:lopl1:1,2019-04-07T22:17:00Z,28.8850,-90.0250,10.0,8.2,140.0,8.8,'1111122,1111122,1111122' 
LOOP,urn:ioos:station:wmo:lopl1:1,2019-04-07T23:17:00Z,28.8850,-90.0250,10.0,8.2,160.0,8.2,'1111122,1111122,1111122' 
LOOP,urn:ioos:station:wmo:lopl1:1,2019-04-08T00:17:00Z,28.8850,-90.0250,10.0,8.8,170.0,9.3,'1111122,1111122,1111122' 
LOOP,urn:ioos:station:wmo:lopl1:1,2019-04-08T01:17:00Z,28.8850,-90.0250,10.0,4.6,300.0,6.2,'1111122,1111122,1111122' 
LOOP,urn:ioos:station:wmo:lopl1:1,2019-04-08T02:17:00Z,28.8850,-90.0250,10.0,3.1,-9999.0,3.6,'1111122,1111122,1111122' 
LOOP,urn:ioos:station:wmo:lopl1:1,2019-04-08T03:17:00Z,28.8850,-90.0250,10.0,4.1,-9999.0,6.7,'1111122,1111122,1111122' 
LOOP,urn:ioos:station:wmo:lopl1:1,2019-04-08T04:17:00Z,28.8850,-90.0250,10.0,4.1,-9999.0,6.2,'1111122,1111122,1111122' 
LOOP,urn:ioos:station:wmo:lopl1:1,2019-04-08T05:17:00Z,28.8850,-90.0250,10.0,7.2,160.0,7.7,'1111122,1111122,1111122' 
LOOP,urn:ioos:station:wmo:lopl1:1,2019-04-08T06:17:00Z,28.8850,-90.0250,10.0,7.2,-9999.0,13.4,'1111122,1111122,1111122' 
LOOP,urn:ioos:station:wmo:lopl1:1,2019-04-08T07:17:00Z,28.8850,-90.0250,10.0,9.8,150.0,10.8,'1111122,1111122,1111122' 
LOOP,urn:ioos:station:wmo:lopl1:1,2019-04-08T08:17:00Z,28.8850,-90.0250,10.0,9.3,-9999.0,13.4,'1111122,1111122,1111122' 
LOOP,urn:ioos:station:wmo:lopl1:1,2019-04-08T09:17:00Z,28.8850,-90.0250,10.0,13.4,160.0,14.4,'1111122,1111122,1111122' 
LOOP,urn:ioos:station:wmo:lopl1:1,2019-04-08T10:22:00Z,28.8850,-90.0250,10.0,10.3,-9999.0,12.9,'1111122,1111122,1111122' 
LOOP,urn:ioos:station:wmo:lopl1:1,2019-04-08T11:22:00Z,28.8850,-90.0250,10.0,16.5,160.0,19.0,'1111122,1111122,1111122' 
LOOP,urn:ioos:station:wmo:lopl1:1,2019-04-08T12:22:00Z,28.8850,-90.0250,10.0,10.8,150.0,12.4,'1111122,1111122,1111122' 
LOOP,urn:ioos:station:wmo:lopl1:1,2019-04-08T13:22:00Z,28.8850,-90.0250,10.0,9.3,-9999.0,10.3,'1111122,1111122,1111122' 
LOOP,urn:ioos:station:wmo:lopl1:1,2019-04-08T14:22:00Z,28.8850,-90.0250,10.0,10.3,-9999.0,12.9,'1111122,1111122,1111122' 
LOOP,urn:ioos:station:wmo:lopl1:1,2019-04-08T15:22:00Z,28.8850,-90.0250,10.0,7.2,-9999.0,10.8,'1111122,1111122,1111122' 
LOOP,urn:ioos:station:wmo:lopl1:1,2019-04-08T16:22:00Z,28.8850,-90.0250,10.0,8.2,-9999.0,12.4,'1111122,1111122,1111122' 
LOOP,urn:ioos:station:wmo:lopl1:1,2019-04-08T17:22:00Z,28.8850,-90.0250,10.0,8.2,-9999.0,12.4,'1111122,1111122,1111122' 
LOOP,urn:ioos:station:wmo:lopl1:1,2019-04-08T18:22:00Z,28.8850,-90.0250,10.0,8.8,-9999.0,12.9,'1111122,1111122,1111122' 
LOOP,urn:ioos:station:wmo:lopl1:1,2019-04-08T19:22:00Z,28.8850,-90.0250,10.0,6.2,260.0,12.9,'1111122,1111122,1111122' 
LOOP,urn:ioos:station:wmo:lopl1:1,2019-04-08T20:22:00Z,28.8850,-90.0250,10.0,4.1,290.0,6.2,'1111122,1111122,1111122' 
LOOP,urn:ioos:station:wmo:lopl1:1,2019-04-08T21:22:00Z,28.8850,-90.0250,10.0,4.6,280.0,6.7,'1111122,1111122,1111122' 
LOOP,urn:ioos:station:wmo:lopl1:1,2019-04-08T22:22:00Z,28.8850,-90.0250,10.0,4.1,290.0,6.7,'1111122,1111122,1111122' 
LOOP,urn:ioos:station:wmo:lopl1:1,2019-04-08T23:27:00Z,28.8850,-90.0250,10.0,4.6,280.0,6.2,'1111122,1111122,1111122' 
LOOP,urn:ioos:station:wmo:lopl1:1,2019-04-09T00:27:00Z,28.8850,-90.0250,10.0,4.1,300.0,6.7,'1111122,1111122,1111122' 
LOOP,urn:ioos:station:wmo:lopl1:1,2019-04-09T01:27:00Z,28.8850,-90.0250,10.0,6.2,-9999.0,8.2,'1111122,1111122,1111122' 
LOOP,urn:ioos:station:wmo:lopl1:1,2019-04-09T02:27:00Z,28.8850,-90.0250,10.0,3.6,-9999.0,6.2,'1111122,1111122,1111122' 
LOOP,urn:ioos:station:wmo:lopl1:1,2019-04-09T03:27:00Z,28.8850,-90.0250,10.0,5.1,260.0,9.8,'1111122,1111122,1111122' 
LOOP,urn:ioos:station:wmo:lopl1:1,2019-04-09T04:27:00Z,28.8850,-90.0250,10.0,6.2,310.0,7.7,'1111122,1111122,1111122' 
LOOP,urn:ioos:station:wmo:lopl1:1,2019-04-09T05:27:00Z,28.8850,-90.0250,10.0,6.2,300.0,9.3,'1111122,1111122,1111122' 
LOOP,urn:ioos:station:wmo:lopl1:1,2019-04-09T06:27:00Z,28.8850,-90.0250,10.0,5.7,310.0,7.2,'1111122,1111122,1111122' 
LOOP,urn:ioos:station:wmo:lopl1:1,2019-04-09T07:27:00Z,28.8850,-90.0250,10.0,3.6,290.0,5.7,'1111122,1111122,1111122' 
LOOP,urn:ioos:station:wmo:lopl1:1,2019-04-09T08:27:00Z,28.8850,-90.0250,10.0,6.7,300.0,8.8,'1111122,1111122,1111122' 
LOOP,urn:ioos:station:wmo:lopl1:1,2019-04-09T09:27:00Z,28.8850,-90.0250,10.0,7.7,310.0,9.3,'1111122,1111122,1111122' 